Weather reports worldwide

Advertisment
Roma/Ciampino, Italy (16239): temperature & dewpoint: 07.07.2020 08:00:00 - 13.07.2020 08:00:00 (CEST)Roma/Ciampino, Italy (16239): wind speed: 07.07.2020 08:00:00 - 13.07.2020 08:00:00 (CEST)Roma/Ciampino, Italy (16239): wind direction: 07.07.2020 08:00:00 - 13.07.2020 08:00:00 (CEST)Roma/Ciampino, Italy (16239): reduced air pressure: 07.07.2020 08:00:00 - 13.07.2020 08:00:00 (CEST)Roma/Ciampino, Italy (16239): visibility: 07.07.2020 08:00:00 - 13.07.2020 08:00:00 (CEST)Roma/Ciampino, Italy (16239): precipitation: 07.07.2020 08:00:00 - 13.07.2020 08:00:00 (CEST)
Date & Time tt [°C] td [°C] ff [km/h] ff [kn] dd ppp [hPa] vv [km] rr [mm]
13.07.2020 08:00:00 - - - - - - - -
13.07.2020 07:00:00 22,0 12,0 15 8 NE - 10 -
13.07.2020 06:00:00 22,0 12,0 11 6 NE - 10 -
13.07.2020 05:00:00 21,4 12,9 13 7 NE 1016,4 10 0,0
13.07.2020 04:00:00 22,0 14,0 11 6 NNE - 10 -
13.07.2020 03:00:00 23,0 21,0 2 1 - - 10 -
13.07.2020 02:00:00 22,9 20,9 2 1 - 1016,5 10 -
13.07.2020 01:00:00 24,0 21,0 9 5 SSW - 10 -
13.07.2020 00:00:00 24,0 21,0 4 2 WSW - 10 -
12.07.2020 23:00:00 24,6 20,9 4 2 - 1016,5 10 0,0
12.07.2020 22:00:00 25,0 21,0 8 4 SW - 10 -
12.07.2020 21:00:00 26,0 20,0 9 5 SW - 10 -
12.07.2020 20:00:00 27,3 19,7 9 5 W 1015,8 10 -
12.07.2020 19:00:00 29,0 19,0 13 7 WSW - 10 -
12.07.2020 18:00:00 31,0 19,0 13 7 WSW - 10 -
12.07.2020 17:00:00 30,2 17,8 11 6 SSW 1015,8 10 0,0
12.07.2020 16:00:00 31,0 18,0 16 9 SW - 10 -
12.07.2020 15:00:00 31,0 18,0 15 8 - - 10 -
12.07.2020 14:00:00 30,7 18,5 15 8 SW 1016,3 10 -
12.07.2020 13:00:00 30,0 19,0 15 8 SW - 10 -
12.07.2020 12:00:00 30,0 19,0 9 5 SSW - 10 -
12.07.2020 11:00:00 29,8 17,9 8 4 W 1016,3 10 0,0
12.07.2020 10:00:00 27,0 18,0 2 1 - - 10 -
12.07.2020 09:00:00 26,0 18,0 4 2 - - 10 -
12.07.2020 08:00:00 23,9 19,6 4 2 - 1015,8 10 -
12.07.2020 07:00:00 21,0 19,0 4 2 NNE - 10 -
12.07.2020 06:00:00 22,0 19,0 5 3 ENE - 10 -
12.07.2020 05:00:00 22,0 18,3 4 2 E 1014,8 10 0,0
12.07.2020 04:00:00 22,0 20,0 2 1 N - 10 -
12.07.2020 03:00:00 23,0 20,0 2 1 - - 10 -
12.07.2020 02:00:00 22,7 20,8 4 2 N 1015,2 10 -
12.07.2020 01:00:00 23,0 21,0 2 1 - - 10 -
12.07.2020 00:00:00 23,0 22,0 2 1 - - 10 -
11.07.2020 23:00:00 23,9 21,6 4 2 WSW 1016,0 10 0,0
11.07.2020 22:00:00 24,0 22,0 5 3 SW - 10 -
11.07.2020 21:00:00 25,0 21,0 9 5 WSW - 10 -
11.07.2020 20:00:00 26,5 20,1 13 7 WSW 1014,8 10 -
11.07.2020 19:00:00 29,0 16,0 13 7 SW - 10 -
11.07.2020 18:00:00 30,0 16,0 13 7 WSW - 10 -
11.07.2020 17:00:00 30,1 15,3 15 8 SW 1014,9 10 0,0
11.07.2020 16:00:00 31,0 17,0 15 8 W - 10 -
11.07.2020 15:00:00 31,0 17,0 16 9 W - 10 -
11.07.2020 14:00:00 30,8 16,8 13 7 W 1015,2 10 -
11.07.2020 13:00:00 31,0 17,0 9 5 - - 10 -
11.07.2020 12:00:00 30,0 17,0 9 5 - - 10 -
11.07.2020 11:00:00 29,2 14,9 8 4 SW 1015,6 10 0,0
11.07.2020 10:00:00 28,0 15,0 5 3 - - 10 -
11.07.2020 09:00:00 25,0 15,0 4 2 - - 10 -
11.07.2020 08:00:00 23,2 15,2 5 3 NNE 1015,2 10 -
11.07.2020 07:00:00 21,0 15,0 4 2 N - 10 -
11.07.2020 06:00:00 22,0 14,0 4 2 ESE - 10 -
11.07.2020 05:00:00 21,7 13,8 8 4 E 1014,6 10 0,0
11.07.2020 04:00:00 - - - - - - - -
11.07.2020 03:00:00 24,0 14,0 4 2 S - 10 -
11.07.2020 02:00:00 23,8 15,0 5 3 SSE 1015,7 10 -
11.07.2020 01:00:00 24,0 17,0 2 1 - - 10 -
11.07.2020 00:00:00 24,0 17,0 8 4 SSW - 10 -
10.07.2020 23:00:00 24,2 15,7 5 3 SW 1015,5 10 0,0
10.07.2020 22:00:00 25,0 15,0 5 3 SW - 10 -
10.07.2020 21:00:00 26,0 15,0 9 5 W - 10 -
10.07.2020 20:00:00 27,7 15,1 11 6 WSW 1014,6 10 -
10.07.2020 19:00:00 30,0 14,0 16 9 W - 10 -
10.07.2020 18:00:00 31,0 14,0 16 9 W - 10 -
10.07.2020 17:00:00 31,7 12,6 21 11 W 1014,6 10 0,0
10.07.2020 16:00:00 32,0 14,0 18 10 W - 10 -
10.07.2020 15:00:00 32,0 13,0 18 10 WNW - 10 -
10.07.2020 14:00:00 33,0 13,0 16 9 WNW 1015,2 10 -
10.07.2020 13:00:00 32,0 15,0 15 8 W - 10 -
10.07.2020 12:00:00 32,0 14,0 8 4 - - 10 -
10.07.2020 11:00:00 30,5 14,9 5 3 SSW 1015,9 10 0,0
10.07.2020 10:00:00 28,0 15,0 4 2 - - 10 -
10.07.2020 09:00:00 27,0 15,0 4 2 - - 10 -
10.07.2020 08:00:00 24,0 15,3 9 5 NNE 1015,4 10 -
10.07.2020 07:00:00 23,0 15,0 5 3 E - 10 -
10.07.2020 06:00:00 22,0 15,0 8 4 ENE - 10 -
10.07.2020 05:00:00 22,3 14,7 4 2 ENE 1015,4 10 0,0
10.07.2020 04:00:00 23,0 15,0 2 1 NE - 10 -
10.07.2020 03:00:00 23,0 17,0 5 3 SW - 10 -
10.07.2020 02:00:00 23,5 17,2 5 3 SSW 1016,3 10 -
10.07.2020 01:00:00 24,0 16,0 5 3 SW - 10 -
10.07.2020 00:00:00 25,0 16,0 5 3 SW - 10 -
09.07.2020 23:00:00 25,6 15,7 8 4 S 1016,4 10 0,0
09.07.2020 22:00:00 26,0 16,0 11 6 SSW - 10 -
09.07.2020 21:00:00 27,0 15,0 8 4 WSW - 10 -
09.07.2020 20:00:00 29,1 14,0 13 7 W 1015,6 10 -
09.07.2020 19:00:00 31,0 14,0 16 9 W - 10 -
09.07.2020 18:00:00 31,0 14,0 21 11 WNW - 10 -
09.07.2020 17:00:00 31,2 14,7 21 11 W 1016,1 10 0,0
09.07.2020 16:00:00 32,0 17,0 18 10 WNW - 10 -
09.07.2020 15:00:00 31,0 18,0 15 8 W - 10 -
09.07.2020 14:00:00 32,0 13,9 8 4 - 1016,5 10 -
09.07.2020 13:00:00 31,0 15,0 9 5 NW - 10 -
09.07.2020 12:00:00 31,0 15,0 8 4 - - 10 -
09.07.2020 11:00:00 28,8 16,1 4 2 - 1017,2 10 0,0
09.07.2020 10:00:00 27,0 17,0 4 2 - - 10 -
09.07.2020 09:00:00 25,0 17,0 4 2 - - 10 -
09.07.2020 08:00:00 22,7 17,4 5 3 NNE 1017,1 10 -
09.07.2020 07:00:00 22,0 16,0 4 2 - - 10 -
09.07.2020 06:00:00 20,0 16,0 2 1 - - 10 -
09.07.2020 05:00:00 21,7 16,0 2 1 - 1016,2 10 0,0
09.07.2020 04:00:00 21,0 15,0 4 2 ENE - 10 -
09.07.2020 03:00:00 23,0 16,0 4 2 SSE - 10 -
09.07.2020 02:00:00 22,7 17,3 4 2 E 1016,5 10 -
09.07.2020 01:00:00 23,0 18,0 4 2 E - 10 -
09.07.2020 00:00:00 23,0 20,0 5 3 WSW - 10 -
08.07.2020 23:00:00 23,1 20,6 5 3 SW 1016,7 10 0,0
08.07.2020 22:00:00 24,0 20,0 9 5 SW - 10 -
08.07.2020 21:00:00 25,0 20,0 9 5 WSW - 10 -
08.07.2020 20:00:00 25,8 19,3 11 6 WSW 1015,5 10 -
08.07.2020 19:00:00 27,0 19,0 15 8 SW - 10 -
08.07.2020 18:00:00 28,0 19,0 16 9 SW - 10 -
08.07.2020 17:00:00 29,1 18,9 15 8 SW 1015,7 10 0,0
08.07.2020 16:00:00 30,0 18,0 15 8 WSW - 10 -
08.07.2020 15:00:00 30,0 17,0 15 8 SW - 10 -
08.07.2020 14:00:00 30,6 17,3 13 7 - 1015,9 10 -
08.07.2020 13:00:00 29,0 17,0 11 6 NW - 10 -
08.07.2020 12:00:00 29,0 17,0 8 4 - - 10 -
08.07.2020 11:00:00 28,5 16,2 5 3 - 1015,8 10 0,0
08.07.2020 10:00:00 26,0 16,0 5 3 - - 10 -
08.07.2020 09:00:00 24,0 14,0 8 4 NNE - 10 -
08.07.2020 08:00:00 22,0 13,3 9 5 NNE 1015,1 10 -
08.07.2020 07:00:00 21,0 13,0 9 5 NE - 10 -
08.07.2020 06:00:00 21,0 13,0 8 4 NE - 10 -
08.07.2020 05:00:00 21,0 13,7 5 3 NE 1014,2 - 0,0
08.07.2020 04:00:00 21,0 14,0 8 4 NE - 10 -
08.07.2020 03:00:00 22,0 15,0 11 6 NE - 10 -
08.07.2020 02:00:00 22,3 14,8 8 4 NE 1013,8 10 -
08.07.2020 01:00:00 24,0 15,0 9 5 NNE - 10 -
08.07.2020 00:00:00 24,0 15,0 4 2 - - 10 -
07.07.2020 23:00:00 24,6 15,2 2 1 - 1013,1 10 0,0
07.07.2020 22:00:00 26,0 15,0 4 2 SW - 10 -
07.07.2020 21:00:00 27,0 16,0 8 4 WSW - 10 -
07.07.2020 20:00:00 28,0 15,6 11 6 SW 1011,7 10 -
07.07.2020 19:00:00 29,0 16,0 15 8 WSW - 10 -
07.07.2020 18:00:00 30,0 16,0 16 9 WSW - 10 -
07.07.2020 17:00:00 30,7 16,3 21 11 SW 1011,1 10 0,0
07.07.2020 16:00:00 32,0 16,0 21 11 SSW - 10 -
07.07.2020 15:00:00 32,0 17,0 21 11 SSW - 10 -
07.07.2020 14:00:00 32,1 19,0 11 6 SSW 1010,3 10 -
07.07.2020 13:00:00 32,0 16,0 13 7 WSW - 10 -
07.07.2020 12:00:00 30,0 15,0 8 4 - - 10 -
07.07.2020 11:00:00 29,8 15,0 5 3 - 1009,7 10 0,0
07.07.2020 10:00:00 28,0 14,0 5 3 NW - 10 -
07.07.2020 09:00:00 26,0 14,0 11 6 NE - 10 -
07.07.2020 08:00:00 24,1 15,0 8 4 NE 1008,0 10 -

tt = temperature
td = dewpoint
ff = wind speed
dd = wind direction
ppp = reduced air pressure
vv = visibility
rr = precipitation

Next stations